AirNav   Everest Fuels
 
 827 users online  

25M Ripley Airport
Ripley, Mississippi, USA

GOING TO RIPLEY?


FAA INFORMATION EFFECTIVE 10 SEPTEMBER 2020

Location

FAA Identifier: 25M
Lat/Long: 34-43-21.8000N 089-00-52.9000W
34-43.363333N 089-00.881667W
34.7227222,-89.0146944
(estimated)
Elevation: 466.9 ft. / 142.3 m (surveyed)
Variation: 01W (2005)
From city: 3 miles W of RIPLEY, MS
Time zone: UTC -5 (UTC -6 during Standard Time)
Zip code: 38663

Airport Operations

Airport use: Open to the public
Activation date: 04/1971
Control tower: no
ARTCC: MEMPHIS CENTER
FSS: GREENWOOD FLIGHT SERVICE STATION
NOTAMs facility: GWO (NOTAM-D service available)
Attendance: UNATNDD
Wind indicator: lighted
Segmented circle: yes
Lights: DUSK-2200. AFTER 2200 ACTVT PAPI 03/21 & MIRL RWY 03/21 - CTAF.
Beacon: white-green (lighted land airport)
Operates sunset to sunrise.

Airport Communications

CTAF/UNICOM: 122.8
  • APCH/DEP SVC PRVDD BY MEMPHIS ARTCC ON FREQS 135.9/260.6 (TUPELO RCAG).

Nearby radio navigation aids

VOR radial/distance  VOR name  Freq  Var
HLIr094/23.9HOLLY SPRINGS VORTAC112.4003E
OTBr336/31.8TUPELO VOR/DME109.8004E

Airport Services

Fuel available: 100LL JET-A
SELF SVC CREDIT CARD FUEL AVBL 24 HRS.
Parking: tiedowns
Airframe service: NONE
Powerplant service: NONE
Bottled oxygen: NONE
Bulk oxygen: NONE

Runway Information

Runway 3/21

Dimensions: 4400 x 75 ft. / 1341 x 23 m
Surface: asphalt, in good condition
Weight bearing capacity: 
Single wheel: 20.0
Runway edge lights: medium intensity
RUNWAY 3  RUNWAY 21
Latitude: 34-43.055667N34-43.672667N
Longitude: 089-01.112667W089-00.650500W
Elevation: 433.0 ft.466.8 ft.
Traffic pattern: leftleft
Runway heading: 033 magnetic, 032 true213 magnetic, 212 true
Markings: nonprecision, in good conditionnonprecision, in good condition
Visual slope indicator: 2-light PAPI on left (3.25 degrees glide path)2-light PAPI on left (3.50 degrees glide path)
Touchdown point: yes, no lightsyes, no lights
Obstructions: 65 ft. tree, 1500 ft. from runway, 300 ft. right of centerline, 20:1 slope to clear65 ft. trees, 1505 ft. from runway, 253 ft. right of centerline, 20:1 slope to clear

Airport Ownership and Management from official FAA records

Ownership: Publicly-owned
Owner: CITY OF RIPLEY & TIPPAH COUNTY
407 JACKSON ST
RIPLEY, MS 38663
Phone 662-837-7374
JOHNNY COOMBS, CHAIRMAN CO ARPT BOARD.
Manager: JOHNNY COOMBS
PO BOX 127
BLUE MOUNTAIN, MS 38610
Phone 662-587-9500

Airport Operational Statistics

Aircraft based on the field: 10
Single engine airplanes: 9
Multi engine airplanes: 1
    
Aircraft operations: avg 30/day *
61% transient general aviation
39% local general aviation
* for 12-month period ending 05 November 2019

Additional Remarks

WILDLIFE ON AND IN VCNTY OF ARPT.
FOR CD CTC MEMPHIS ARTCC AT 901-368-8453.

Instrument Procedures

NOTE: All procedures below are presented as PDF files. If you need a reader for these files, you should download the free Adobe Reader.

NOT FOR NAVIGATION. Please procure official charts for flight.
FAA instrument procedures published for use from 10 September 2020 at 0901Z to 08 October 2020 at 0900z.

 
IAPs - Instrument Approach Procedures
RNAV (GPS) RWY 03   download (209KB)
RNAV (GPS) RWY 21   download (206KB)
VOR/DME-A **CHANGED**   download (187KB)
NOTE: Special Take-Off Minimums/Departure Procedures apply   download (116KB)

Other nearby airports with instrument procedures:

M72 - New Albany-Union County Airport (10 nm S)
8M1 - Booneville/Baldwyn Airport (20 nm SE)
KCRX - Roscoe Turner Airport (23 nm NE)
M41 - Holly Springs-Marshall County Airport (25 nm W)
M08 - William L Whitehurst Field Airport (30 nm N)
 
Loc | Ops | Rwys | IFR | FBO | Links
Com | Nav | Svcs | Stats | Notes
Area around 25M (Ripley Airport)
 
Road maps at: MapQuest Bing Google
 
Aerial photo
WARNING: Photo may not be current or correct
Aerial photo of 25M (Ripley Airport)
Photo by CS
Photo taken 01-Jun-2017
looking north.

Do you have a better or more recent aerial photo of Ripley Airport that you would like to share? If so, please send us your photo.

 
Sectional chart

 
Airport distance calculator
Flying to Ripley Airport? Find the distance to fly.

From to 25M

Sunrise and sunset
Times for 28-Sep-2020
 Local
(UTC-5)
 Zulu
(UTC)
Morning civil twilight06:2511:25
Sunrise06:5011:50
Sunset18:4323:43
Evening civil twilight19:0800:08

Current date and time
Zulu (UTC)  28-Sep-2020 12:10:01
Local (UTC-5)  28-Sep-2020 07:10:01
 
METAR
KCRX 
23nm NE 
281155Z AUTO 17006KT 10SM BKN043 BKN050 OVC070 20/18 A2981 RMK AO2
KM08 
30nm N 
281155Z AUTO 24005KT 10SM BKN021 OVC025 20/18 A2980 RMK A01
KTUP 
30nm SE 
281153Z 19005KT 10SM SCT031 BKN090 20/18 A2983 RMK AO2 SLP096 T02000178 10206 20189 51019 $
KUOX 
33nm SW 
281155Z AUTO VRB04KT 10SM FEW018 SCT030 BKN040 20/18 A2982 RMK AO2 PWINO
KFYE 
35nm NW 
281155Z AUTO 31005KT 10SM OVC009 17/15 A2982 RMK A01
KSZY 
38nm NE 
281155Z AUTO 19007KT 10SM FEW047 SCT055 BKN070 20/18 A2979 RMK A01
KOLV 
41nm NW 
281150Z 34013KT 7SM -RA BKN011 OVC025 16/15 A2984
TAF
KTUP 
30nm SE 
280520Z 2806/2906 18005KT P6SM FEW050 FM281400 20008KT 6SM -SHRA BR SCT008 BKN015 FM281600 34013G20KT 5SM -SHRA BR BKN008 FM281900 35012G18KT P6SM VCSH FEW010 BKN018 FM282100 35011KT P6SM SCT025 BKN080 FM290200 33005KT P6SM FEW040 BKN150 AMD NOT SKED 2806/2809
NOTAMs
Click for the latest NOTAMs
NOTAMs are issued by the DoD/FAA and will open in a separate window not controlled by AirNav.

 

 
 

FBO, Fuel Providers, and Aircraft Ground Support

  
 Business Name 
 
 Contact 
 
 Services / Description 
 
Fuel Prices
 
Comments
  
Ripley Airport 662-587-9500
no information available

If you are affiliated with Ripley Airport and would like to show here your services, contact info, web link, logo, and more, click here
100LL Jet A
SS $3.25 $2.00 
 Updated 22-Sep-2020
 
   2 read write
SS=Self service
Update Fuel Prices
 

Would you like to see your business listed on this page?

 If your business provides an interesting product or service to pilots, flight crews, aircraft, or users of the Ripley Airport, you should consider listing it here.  To start the listing process, click on the button below
 
Add a business
 

Other Pages about Ripley Airport

Update a link
 
Copyright © AirNav, LLC. All rights reserved. Privacy Policy  Contact